sat.trackr.live / text

‹ back to catalog

STARLINK-6190

NORAD 56774 · 2023-078H

PAYLOAD ACTIVE UNKNOWN

§ Identity

Operator
Country
US
Launch date
2023-05-31
Launch site
AFWTR
Launch vehicle
Mass (kg)
RCS (m²)

Purposes: comms

External: N2YO · Heavens-Above · Gunter

§ Orbital elements

Epoch: 2026-09-20T22:00:03.000096Z

Period
95.74 min
Inclination
69.9991°
Eccentricity
0.0003107
Mean motion
15.04129969 rev/d
Perigee alt
552.0 km
Apogee alt
556.3 km
Semi-major
6,932.3 km
B*
4.2510e-3
RAAN
232.2705°
Arg perigee
259.4977°
Mean anomaly
289.1975°
Rev number
566

§ Raw data

STARLINK-61901 56774U 23078H   26263.91670139  .00059462  00000+0  42510-2 0  99932 56774  69.9991 232.2705 0003107 259.4977 289.1975 15.04129969  5663

JSON: /api/v1/satellites/56774 · /tle

For live sub-satellite position, see the globe view (requires WebGL).

§ Visibility from observer

Set your observer location to see the next 7 days of passes ≥ 10°. The values pass through the URL so the page stays shareable.

No JS? Fill the form by hand. The geolocation button needs JavaScript.